Location: Pedimozza
(42.0500°N, 9.3500°E)
Time: 09:03:58
(UTC+00:00)

Cosmos 1656 Rocket - Pass Details

Date: 19 August 2019
Orbit: 795 x 847 km, 71.1° (Epoch: 17 September)

Event Time Altitude Azimuth Distance (km) Brightness Sun altitude
Rises 18:38:26 0° 338° (NNW) 3,409 7.6 -4.4°
Reaches altitude 10° 18:40:56 10° 341° (NNW) 2,465 6.8 -4.9°
Maximum altitude 18:46:34 66° 64° (ENE) 909 3.8 -5.8°
Drops below altitude 10° 18:52:05 10° 146° (SSE) 2,418 5.6 -6.8°
Enters shadow 18:53:53 - 149° (SSE) 3,102 6.1 -7.1°
